Weather History for K08D - November, 2013

Change the Weather History Date:

Tuesday, November 19, 2013

  Actual Average (KMOT) Record (KMOT)
Temperature  
Mean Temperature 30 °F 26 °F  
Max Temperature 42 °F 35 °F 65 °F (1936)
Min Temperature 17 °F 18 °F -25 °F (1921)
Degree Days  
Heating Degree Days 34 39  
Month to date heating degree days 638  
Since 1 July heating degree days 1598  
Moisture  
Dew Point 29 °F    
Average Humidity 95    
Maximum Humidity 100    
Minimum Humidity 70    
Precipitation  
Precipitation 0.00 in 0.03 in 0.77 in (1985)
Month to date precipitation 0.54  
Year to date precipitation 16.60  
Sea Level Pressure  
Sea Level Pressure 29.60 in    
Wind  
Wind Speed 7 mph (South)    
Max Wind Speed 18 mph    
Max Gust Speed 28 mph    
Visibility 10 miles    
Events      
T = Trace of Precipitation, MM = Missing Value Source: NWS Daily Summary

Daily Weather History Graph

Daily Weather History Graph

Search for Another Location

Airport or City:

Trip Planner

Search our weather history database for the weather conditions in past years. The results will help you decide how hot, cold, wet, or windy it might be!

Date:

Astronomy

Nov. 19, 2013 Rise Set
Actual Time 8:03 AM CST 5:06 PM CST
Civil Twilight 7:28 AM CST 5:40 PM CST
Nautical Twilight 6:50 AM CST 6:19 PM CST
Astronomical Twilight 6:13 AM CST 6:56 PM CST
Moon 6:57 PM CST (11/19) 9:45 AM CST (11/19)
Length of Visible Light 10h 12m
Length of Day
9h 02m
Waning Gibbous, 96% of the Moon is Illuminated
Nov 19
Waning Gibbous
Nov 25
Last Quarter
Dec 2
New
Dec 9
First Quarter
Dec 17
Full

Hourly Weather History & Observations

Time (CST) Temp. Windchill Dew Point Humidity Pressure Visibility Wind Dir Wind Speed Gust Speed Precip Events Conditions
12:15 AM 30.2 °F 24.3 °F 30.2 °F 100% 29.81 in 10.0 mi SSW 5.8 mph - N/A   Clear
12:35 AM 28.4 °F 24.6 °F 28.4 °F 100% 29.80 in 10.0 mi SSW 3.5 mph - N/A   Clear
12:55 AM 28.4 °F 23.3 °F 28.4 °F 100% 29.80 in 10.0 mi South 4.6 mph - N/A   Clear
1:15 AM 28.4 °F 21.2 °F 28.4 °F 100% 29.79 in 10.0 mi SSE 6.9 mph - N/A   Clear
1:35 AM 28.4 °F 22.2 °F 28.4 °F 100% 29.78 in 10.0 mi SSE 5.8 mph - N/A   Clear
1:55 AM 26.6 °F 22.6 °F 26.6 °F 100% 29.77 in 10.0 mi SE 3.5 mph - N/A   Clear
2:15 AM 26.6 °F 21.2 °F 26.6 °F 100% 29.77 in 10.0 mi SE 4.6 mph - N/A   Clear
2:35 AM 26.6 °F 19.1 °F 26.6 °F 100% 29.76 in 10.0 mi SSE 6.9 mph - N/A   Clear
2:55 AM 26.6 °F 20.0 °F 26.6 °F 100% 29.75 in 10.0 mi SSE 5.8 mph - N/A   Clear
3:15 AM 26.6 °F 21.2 °F 26.6 °F 100% 29.74 in 10.0 mi SSE 4.6 mph - N/A   Clear
3:35 AM 26.6 °F 20.0 °F 26.6 °F 100% 29.73 in 10.0 mi SE 5.8 mph - N/A   Clear
3:55 AM 26.6 °F 20.0 °F 26.6 °F 100% 29.72 in 10.0 mi SE 5.8 mph - N/A   Clear
4:15 AM 26.6 °F 20.0 °F 26.6 °F 100% 29.71 in 10.0 mi SE 5.8 mph - N/A   Clear
4:35 AM 28.4 °F 23.3 °F 28.4 °F 100% 29.70 in 10.0 mi South 4.6 mph - N/A   Clear
4:55 AM 28.4 °F 22.2 °F 28.4 °F 100% 29.70 in 10.0 mi SSE 5.8 mph - N/A   Scattered Clouds
5:15 AM 28.4 °F 22.2 °F 28.4 °F 100% 29.69 in 10.0 mi SSE 5.8 mph - N/A   Overcast
5:35 AM 30.2 °F 22.6 °F 30.2 °F 100% 29.67 in 10.0 mi SSE 8.1 mph - N/A   Overcast
5:55 AM 30.2 °F 24.3 °F 30.2 °F 100% 29.67 in 10.0 mi SE 5.8 mph - N/A   Overcast
6:15 AM 32.0 °F 25.6 °F 32.0 °F 100% 29.66 in 10.0 mi SSE 6.9 mph - N/A   Overcast
6:35 AM 32.0 °F 25.6 °F 32.0 °F 100% 29.65 in 10.0 mi SE 6.9 mph - N/A   Overcast
6:55 AM 30.2 °F 22.6 °F 30.2 °F 100% 29.63 in 10.0 mi SE 8.1 mph - N/A   Mostly Cloudy
7:15 AM 30.2 °F 23.4 °F 30.2 °F 100% 29.63 in 10.0 mi SE 6.9 mph - N/A   Overcast
7:35 AM 32.0 °F 24.2 °F 32.0 °F 100% 29.62 in 10.0 mi SSE 9.2 mph - N/A   Mostly Cloudy
7:55 AM 32.0 °F 24.2 °F 32.0 °F 100% 29.61 in 10.0 mi SSE 9.2 mph - N/A   Overcast
8:15 AM 32.0 °F 26.4 °F 32.0 °F 100% 29.61 in 10.0 mi SE 5.8 mph - N/A   Mostly Cloudy
8:35 AM 32.0 °F 23.0 °F 32.0 °F 100% 29.60 in 10.0 mi South 11.5 mph - N/A   Partly Cloudy
8:55 AM 32.0 °F 24.2 °F 32.0 °F 100% 29.58 in 10.0 mi SSE 9.2 mph - N/A   Clear
9:15 AM 32.0 °F 23.0 °F 32.0 °F 100% 29.57 in 10.0 mi South 11.5 mph - N/A   Clear
9:35 AM 32.0 °F 23.6 °F 32.0 °F 100% 29.57 in 10.0 mi SSE 10.4 mph - N/A   Clear
9:55 AM 32.0 °F 23.0 °F 32.0 °F 100% 29.56 in 10.0 mi SSE 11.5 mph - N/A   Clear
10:15 AM 32.0 °F 23.6 °F 32.0 °F 100% 29.55 in 10.0 mi South 10.4 mph - N/A   Clear
10:35 AM 32.0 °F 23.0 °F 32.0 °F 100% 29.55 in 10.0 mi South 11.5 mph - N/A   Clear
10:55 AM 32.0 °F 23.0 °F 32.0 °F 100% 29.55 in 10.0 mi South 11.5 mph - N/A   Clear
11:15 AM 33.8 °F 25.8 °F 33.8 °F 100% 29.54 in 10.0 mi South 10.4 mph - N/A   Clear
11:35 AM 35.6 °F 29.2 °F 35.6 °F 100% 29.53 in 10.0 mi South 8.1 mph - N/A   Clear
11:55 AM 35.6 °F 29.9 °F 35.6 °F 100% 29.52 in 10.0 mi South 6.9 mph - N/A   Clear
12:15 PM 35.6 °F 30.7 °F 35.6 °F 100% 29.51 in 10.0 mi South 5.8 mph - N/A   Clear
12:35 PM 37.4 °F 32.8 °F 35.6 °F 93% 29.50 in 10.0 mi SW 5.8 mph - N/A   Clear
12:55 PM 39.2 °F 34.2 °F 33.8 °F 81% 29.49 in 10.0 mi SSW 6.9 mph - N/A   Clear
1:15 PM 39.2 °F 34.2 °F 32.0 °F 75% 29.49 in 10.0 mi SW 6.9 mph - N/A   Clear
1:35 PM 39.2 °F 33.6 °F 32.0 °F 75% 29.48 in 10.0 mi SW 8.1 mph - N/A   Partly Cloudy
1:55 PM 39.2 °F 33.6 °F 33.8 °F 81% 29.47 in 10.0 mi SSW 8.1 mph - N/A   Clear
2:15 PM 41.0 °F 36.4 °F 33.8 °F 76% 29.46 in 10.0 mi SSW 6.9 mph - N/A   Clear
2:35 PM 41.0 °F 37.1 °F 33.8 °F 76% 29.45 in 10.0 mi SSW 5.8 mph - N/A   Clear
2:55 PM 41.0 °F 36.4 °F 33.8 °F 76% 29.45 in 10.0 mi SSW 6.9 mph - N/A   Clear
3:15 PM 41.0 °F 36.4 °F 35.6 °F 81% 29.46 in 10.0 mi SW 6.9 mph - N/A   Clear
3:35 PM 42.8 °F 38.0 °F 33.8 °F 70% 29.46 in 10.0 mi WSW 8.1 mph - N/A   Clear
3:55 PM 41.0 °F 36.4 °F 33.8 °F 76% 29.47 in 10.0 mi SW 6.9 mph - N/A   Clear
4:15 PM 41.0 °F 37.1 °F 33.8 °F 76% 29.47 in 10.0 mi SW 5.8 mph - N/A   Clear
4:35 PM 39.2 °F 37.0 °F 33.8 °F 81% 29.48 in 10.0 mi WNW 3.5 mph - N/A   Clear
4:55 PM 37.4 °F 31.4 °F 32.0 °F 81% 29.49 in 10.0 mi North 8.1 mph - N/A   Clear
5:15 PM 35.6 °F 32.8 °F 32.0 °F 87% 29.49 in 10.0 mi NW 3.5 mph - N/A   Clear
5:35 PM 32.0 °F - 32.0 °F 100% 29.50 in 10.0 mi Calm Calm - N/A   Clear
5:55 PM 33.8 °F - 32.0 °F 93% 29.50 in 10.0 mi Calm Calm - N/A   Clear
6:15 PM 28.4 °F - 28.4 °F 100% 29.50 in 10.0 mi Calm Calm - N/A   Clear
6:35 PM 32.0 °F 27.5 °F 32.0 °F 100% 29.52 in 10.0 mi NW 4.6 mph - N/A   Clear
6:55 PM 32.0 °F 27.5 °F 32.0 °F 100% 29.52 in 10.0 mi NNW 4.6 mph - N/A   Clear
7:15 PM 32.0 °F 27.5 °F 32.0 °F 100% 29.53 in 10.0 mi North 4.6 mph - N/A   Clear
7:35 PM 28.4 °F 22.2 °F 28.4 °F 100% 29.54 in 10.0 mi NNW 5.8 mph - N/A   Clear
8:15 PM 26.6 °F 16.2 °F 26.6 °F 100% 29.55 in 10.0 mi North 11.5 mph - N/A   Clear
8:35 PM 24.8 °F 16.1 °F 24.8 °F 100% 29.56 in 10.0 mi North 8.1 mph - N/A   Clear
8:55 PM 23.0 °F 10.1 °F 23.0 °F 100% 29.56 in 10.0 mi NNW 15.0 mph 21.9 mph N/A   Scattered Clouds
9:15 PM 23.0 °F 10.1 °F 23.0 °F 100% 29.57 in 10.0 mi NNW 15.0 mph 19.6 mph N/A   Overcast
9:35 PM 23.0 °F 11.1 °F 23.0 °F 100% 29.58 in 10.0 mi NNW 12.7 mph 19.6 mph N/A   Overcast
9:55 PM 21.2 °F 8.3 °F 21.2 °F 100% 29.60 in 10.0 mi NNW 13.8 mph 19.6 mph N/A   Overcast
10:15 PM 21.2 °F 8.9 °F 19.4 °F 93% 29.61 in 10.0 mi NNW 12.7 mph 23.0 mph N/A   Overcast
10:35 PM 19.4 °F 6.0 °F 19.4 °F 100% 29.62 in 10.0 mi NW 13.8 mph 20.7 mph N/A   Mostly Cloudy
10:55 PM 19.4 °F 6.0 °F 19.4 °F 100% 29.63 in 10.0 mi NW 13.8 mph 19.6 mph N/A   Clear
11:15 PM 19.4 °F 5.5 °F 17.6 °F 93% 29.64 in 10.0 mi NNW 15.0 mph 23.0 mph N/A   Mostly Cloudy
11:35 PM 19.4 °F 4.1 °F 17.6 °F 93% 29.66 in 10.0 mi NNW 18.4 mph 23.0 mph N/A   Overcast
11:55 PM 17.6 °F 1.7 °F 15.8 °F 93% 29.67 in 10.0 mi NNW 18.4 mph 27.6 mph N/A   Overcast